Year,Month,Day,Hour,Minute,Value (Times are PST for temperature in C)
2018,08,09,00,00,27.60
2018,08,09,00,01,27.60
2018,08,09,00,02,27.60
2018,08,09,00,03,27.60
2018,08,09,00,04,27.50
2018,08,09,00,05,27.50
2018,08,09,00,06,27.40
2018,08,09,00,07,27.40
2018,08,09,00,08,27.30
2018,08,09,00,09,27.30
2018,08,09,00,10,27.30
2018,08,09,00,11,27.20
2018,08,09,00,12,27.20
2018,08,09,00,13,27.10
2018,08,09,00,14,27.10
2018,08,09,00,15,27.10
2018,08,09,00,16,27.00
2018,08,09,00,17,26.90
2018,08,09,00,18,26.90
2018,08,09,00,19,26.90
2018,08,09,00,20,26.80
2018,08,09,00,21,26.80
2018,08,09,00,22,26.80
2018,08,09,00,23,26.80
2018,08,09,00,24,26.70
2018,08,09,00,25,26.70
2018,08,09,00,26,26.70
2018,08,09,00,27,26.70
2018,08,09,00,28,26.70
2018,08,09,00,29,26.70
2018,08,09,00,30,26.70
2018,08,09,00,31,26.70
2018,08,09,00,32,26.70
2018,08,09,00,33,26.70
2018,08,09,00,34,26.70
2018,08,09,00,35,26.70
2018,08,09,00,36,26.70
2018,08,09,00,37,26.70
2018,08,09,00,38,26.70
2018,08,09,00,39,26.60
2018,08,09,00,40,26.60
2018,08,09,00,41,26.60
2018,08,09,00,42,26.60
2018,08,09,00,43,26.60
2018,08,09,00,44,26.60
2018,08,09,00,45,26.50
2018,08,09,00,46,26.50
2018,08,09,00,47,26.50
2018,08,09,00,48,26.50
2018,08,09,00,49,26.40
2018,08,09,00,50,26.40
2018,08,09,00,51,26.40
2018,08,09,00,52,26.40
2018,08,09,00,53,26.40
2018,08,09,00,54,26.40
2018,08,09,00,55,26.30
2018,08,09,00,56,26.30
2018,08,09,00,57,26.30
2018,08,09,00,58,26.30
2018,08,09,00,59,26.20
2018,08,09,01,00,26.20
2018,08,09,01,01,26.20
2018,08,09,01,02,26.10
2018,08,09,01,03,26.10
2018,08,09,01,04,26.10
2018,08,09,01,05,26.10
2018,08,09,01,06,26.00
2018,08,09,01,07,26.00
2018,08,09,01,08,26.00
2018,08,09,01,09,26.00
2018,08,09,01,10,26.00
2018,08,09,01,11,26.00
2018,08,09,01,12,26.00
2018,08,09,01,13,25.90
2018,08,09,01,14,25.90
2018,08,09,01,15,25.90
2018,08,09,01,16,25.90
2018,08,09,01,17,25.90
2018,08,09,01,18,25.90
2018,08,09,01,19,25.90
2018,08,09,01,20,25.80
2018,08,09,01,21,25.80
2018,08,09,01,22,25.80
2018,08,09,01,23,25.80
2018,08,09,01,24,25.80
2018,08,09,01,25,25.80
2018,08,09,01,26,25.70
2018,08,09,01,27,25.70
2018,08,09,01,28,25.70
2018,08,09,01,29,25.70
2018,08,09,01,30,25.70
2018,08,09,01,31,25.60
2018,08,09,01,32,25.60
2018,08,09,01,33,25.60
2018,08,09,01,34,25.50
2018,08,09,01,35,25.40
2018,08,09,01,36,25.40
2018,08,09,01,37,25.40
2018,08,09,01,38,25.30
2018,08,09,01,39,25.30
2018,08,09,01,40,25.30
2018,08,09,01,41,25.30
2018,08,09,01,42,25.20
2018,08,09,01,43,25.20
2018,08,09,01,44,25.10
2018,08,09,01,45,25.10
2018,08,09,01,46,25.00
2018,08,09,01,47,25.00
2018,08,09,01,48,24.90
2018,08,09,01,49,24.90
2018,08,09,01,50,24.90
2018,08,09,01,51,24.80
2018,08,09,01,52,24.80
2018,08,09,01,53,24.80
2018,08,09,01,54,24.80
2018,08,09,01,55,24.70
2018,08,09,01,56,24.70
2018,08,09,01,57,24.70
2018,08,09,01,58,24.70
2018,08,09,01,59,24.70
2018,08,09,02,00,24.70
2018,08,09,02,01,24.60
2018,08,09,02,02,24.60
2018,08,09,02,03,24.60
2018,08,09,02,04,24.60
2018,08,09,02,05,24.50
2018,08,09,02,06,24.50
2018,08,09,02,07,24.40
2018,08,09,02,08,24.40
2018,08,09,02,09,24.40
2018,08,09,02,10,24.30
2018,08,09,02,11,24.30
2018,08,09,02,12,24.20
2018,08,09,02,13,24.20
2018,08,09,02,14,24.20
2018,08,09,02,15,24.20
2018,08,09,02,16,24.10
2018,08,09,02,17,24.10
2018,08,09,02,18,24.10
2018,08,09,02,19,24.10
2018,08,09,02,20,24.00
2018,08,09,02,21,24.00
2018,08,09,02,22,24.00
2018,08,09,02,23,24.00
2018,08,09,02,24,24.00
2018,08,09,02,25,24.00
2018,08,09,02,26,24.00
2018,08,09,02,27,24.10
2018,08,09,02,28,24.10
2018,08,09,02,29,24.10
2018,08,09,02,30,24.10
2018,08,09,02,31,24.10
2018,08,09,02,32,24.10
2018,08,09,02,33,24.10
2018,08,09,02,34,24.10
2018,08,09,02,35,24.10
2018,08,09,02,36,24.10
2018,08,09,02,37,24.10
2018,08,09,02,38,24.10
2018,08,09,02,39,24.10
2018,08,09,02,40,24.10
2018,08,09,02,41,24.10
2018,08,09,02,42,24.10
2018,08,09,02,43,24.10
2018,08,09,02,44,24.00
2018,08,09,02,45,24.00
2018,08,09,02,46,24.00
2018,08,09,02,47,23.90
2018,08,09,02,48,23.90
2018,08,09,02,49,23.90
2018,08,09,02,50,23.90
2018,08,09,02,51,23.80
2018,08,09,02,52,23.80
2018,08,09,02,53,23.80
2018,08,09,02,54,23.80
2018,08,09,02,55,23.80
2018,08,09,02,56,23.70
2018,08,09,02,57,23.70
2018,08,09,02,58,23.70
2018,08,09,02,59,23.70
2018,08,09,03,00,23.60
2018,08,09,03,01,23.60
2018,08,09,03,02,23.60
2018,08,09,03,03,23.60
2018,08,09,03,04,23.50
2018,08,09,03,05,23.50
2018,08,09,03,06,23.50
2018,08,09,03,07,23.40
2018,08,09,03,08,23.40
2018,08,09,03,09,23.40
2018,08,09,03,10,23.40
2018,08,09,03,11,23.30
2018,08,09,03,12,23.30
2018,08,09,03,13,23.30
2018,08,09,03,14,23.30
2018,08,09,03,15,23.30
2018,08,09,03,16,23.30
2018,08,09,03,17,23.30
2018,08,09,03,18,23.30
2018,08,09,03,19,23.30
2018,08,09,03,20,23.30
2018,08,09,03,21,23.30
2018,08,09,03,22,23.30
2018,08,09,03,23,23.30
2018,08,09,03,24,23.30
2018,08,09,03,25,23.30
2018,08,09,03,26,23.30
2018,08,09,03,27,23.30
2018,08,09,03,28,23.30
2018,08,09,03,29,23.30
2018,08,09,03,30,23.30
2018,08,09,03,31,23.40
2018,08,09,03,32,23.40
2018,08,09,03,33,23.40
2018,08,09,03,34,23.40
2018,08,09,03,35,23.40
2018,08,09,03,36,23.40
2018,08,09,03,37,23.40
2018,08,09,03,38,23.40
2018,08,09,03,39,23.40
2018,08,09,03,40,23.40
2018,08,09,03,41,23.40
2018,08,09,03,42,23.40
2018,08,09,03,43,23.40
2018,08,09,03,44,23.40
2018,08,09,03,45,23.40
2018,08,09,03,46,23.40
2018,08,09,03,47,23.40
2018,08,09,03,48,23.40
2018,08,09,03,49,23.30
2018,08,09,03,50,23.30
2018,08,09,03,51,23.30
2018,08,09,03,52,23.30
2018,08,09,03,53,23.30
2018,08,09,03,54,23.30
2018,08,09,03,55,23.30
2018,08,09,03,56,23.20
2018,08,09,03,57,23.20
2018,08,09,03,58,23.20
2018,08,09,03,59,23.20
2018,08,09,04,00,23.20
2018,08,09,04,01,23.20
2018,08,09,04,02,23.20
2018,08,09,04,03,23.20
2018,08,09,04,04,23.20
2018,08,09,04,05,23.20
2018,08,09,04,06,23.20
2018,08,09,04,07,23.20
2018,08,09,04,08,23.10
2018,08,09,04,09,23.10
2018,08,09,04,10,23.10
2018,08,09,04,11,23.10
2018,08,09,04,12,23.10
2018,08,09,04,13,23.10
2018,08,09,04,14,23.10
2018,08,09,04,15,23.10
2018,08,09,04,16,23.10
2018,08,09,04,17,23.10
2018,08,09,04,18,23.10
2018,08,09,04,19,23.10
2018,08,09,04,20,23.10
2018,08,09,04,21,23.10
2018,08,09,04,22,23.10
2018,08,09,04,23,23.10
2018,08,09,04,24,23.10
2018,08,09,04,25,23.10
2018,08,09,04,26,23.10
2018,08,09,04,27,23.10
2018,08,09,04,28,23.10
2018,08,09,04,29,23.10
2018,08,09,04,30,23.10
2018,08,09,04,31,23.00
2018,08,09,04,32,23.00
2018,08,09,04,33,23.00
2018,08,09,04,34,23.00
2018,08,09,04,35,23.00
2018,08,09,04,36,23.00
2018,08,09,04,37,22.90
2018,08,09,04,38,22.90
2018,08,09,04,39,22.90
2018,08,09,04,40,22.90
2018,08,09,04,41,22.80
2018,08,09,04,42,22.80
2018,08,09,04,43,22.80
2018,08,09,04,44,22.80
2018,08,09,04,45,22.70
2018,08,09,04,46,22.70
2018,08,09,04,47,22.60
2018,08,09,04,48,22.60
2018,08,09,04,49,22.60
2018,08,09,04,50,22.50
2018,08,09,04,51,22.50
2018,08,09,04,52,22.40
2018,08,09,04,53,22.40
2018,08,09,04,54,22.30
2018,08,09,04,55,22.30
2018,08,09,04,56,22.20
2018,08,09,04,57,22.20
2018,08,09,04,58,22.20
2018,08,09,04,59,22.10
2018,08,09,05,00,22.10
2018,08,09,05,01,22.10
2018,08,09,05,02,22.00
2018,08,09,05,03,22.00
2018,08,09,05,04,21.90
2018,08,09,05,05,21.90
2018,08,09,05,06,21.90
2018,08,09,05,07,21.90
2018,08,09,05,08,21.90
2018,08,09,05,09,21.90
2018,08,09,05,10,21.80
2018,08,09,05,11,21.80
2018,08,09,05,12,21.80
2018,08,09,05,13,21.80
2018,08,09,05,14,21.70
2018,08,09,05,15,21.70
2018,08,09,05,16,21.70
2018,08,09,05,17,21.60
2018,08,09,05,18,21.60
2018,08,09,05,19,21.50
2018,08,09,05,20,21.50
2018,08,09,05,21,21.50
2018,08,09,05,22,21.40
2018,08,09,05,23,21.40
2018,08,09,05,24,21.30
2018,08,09,05,25,21.30
2018,08,09,05,26,21.20
2018,08,09,05,27,21.20
2018,08,09,05,28,21.10
2018,08,09,05,29,21.10
2018,08,09,05,30,21.10
2018,08,09,05,31,21.00
2018,08,09,05,32,21.00
2018,08,09,05,33,21.00
2018,08,09,05,34,20.90
2018,08,09,05,35,20.90
2018,08,09,05,36,20.90
2018,08,09,05,37,20.80
2018,08,09,05,38,20.80
2018,08,09,05,39,20.80
2018,08,09,05,40,20.80
2018,08,09,05,41,20.70
2018,08,09,05,42,20.70
2018,08,09,05,43,20.70
2018,08,09,05,44,20.70
2018,08,09,05,45,20.70
2018,08,09,05,46,20.60
2018,08,09,05,47,20.60
2018,08,09,05,48,20.60
2018,08,09,05,49,20.60
2018,08,09,05,50,20.50
2018,08,09,05,51,20.50
2018,08,09,05,52,20.50
2018,08,09,05,53,20.40
2018,08,09,05,54,20.40
2018,08,09,05,55,20.40
2018,08,09,05,56,20.40
2018,08,09,05,57,20.40
2018,08,09,05,58,20.30
2018,08,09,05,59,20.30
2018,08,09,06,00,20.30
2018,08,09,06,01,20.30
2018,08,09,06,02,20.30
2018,08,09,06,03,20.30
2018,08,09,06,04,20.30
2018,08,09,06,05,20.20
2018,08,09,06,06,20.20
2018,08,09,06,07,20.20
2018,08,09,06,08,20.20
2018,08,09,06,09,20.20
2018,08,09,06,10,20.20
2018,08,09,06,11,20.20
2018,08,09,06,12,20.20
2018,08,09,06,13,20.20
2018,08,09,06,14,20.20
2018,08,09,06,15,20.20
2018,08,09,06,16,20.10
2018,08,09,06,17,20.10
2018,08,09,06,18,20.10
2018,08,09,06,19,20.10
2018,08,09,06,20,20.10
2018,08,09,06,21,20.10
2018,08,09,06,22,20.10
2018,08,09,06,23,20.10
2018,08,09,06,24,20.10
2018,08,09,06,25,20.10
2018,08,09,06,26,20.10
2018,08,09,06,27,20.10
2018,08,09,06,28,20.10
2018,08,09,06,29,20.10
2018,08,09,06,30,20.10
2018,08,09,06,31,20.10
2018,08,09,06,32,20.10
2018,08,09,06,33,20.10
2018,08,09,06,34,20.10
2018,08,09,06,35,20.10
2018,08,09,06,36,20.10
2018,08,09,06,37,20.10
2018,08,09,06,38,20.10
2018,08,09,06,39,20.10
2018,08,09,06,40,20.10
2018,08,09,06,41,20.00
2018,08,09,06,42,20.00
2018,08,09,06,43,20.00
2018,08,09,06,44,20.00
2018,08,09,06,45,20.00
2018,08,09,06,46,19.90
2018,08,09,06,47,19.90
2018,08,09,06,48,19.90
2018,08,09,06,49,19.90
2018,08,09,06,50,19.90
2018,08,09,06,51,19.90
2018,08,09,06,52,19.90
2018,08,09,06,53,19.90
2018,08,09,06,54,19.90
2018,08,09,06,55,19.90
2018,08,09,06,56,19.90
2018,08,09,06,57,19.90
2018,08,09,06,58,19.90
2018,08,09,06,59,19.90
2018,08,09,07,00,19.90
2018,08,09,07,01,20.00
2018,08,09,07,02,20.00
2018,08,09,07,03,20.00
2018,08,09,07,04,20.10
2018,08,09,07,05,20.10
2018,08,09,07,06,20.10
2018,08,09,07,07,20.10
2018,08,09,07,08,20.10
2018,08,09,07,09,20.10
2018,08,09,07,10,20.20
2018,08,09,07,11,20.20
2018,08,09,07,12,20.20
2018,08,09,07,13,20.20
2018,08,09,07,14,20.20
2018,08,09,07,15,20.20
2018,08,09,07,16,20.20
2018,08,09,07,17,20.20
2018,08,09,07,18,20.20
2018,08,09,07,19,20.20
2018,08,09,07,20,20.20
2018,08,09,07,21,20.20
2018,08,09,07,22,20.20
2018,08,09,07,23,20.20
2018,08,09,07,24,20.20
2018,08,09,07,25,20.20
2018,08,09,07,26,20.20
2018,08,09,07,27,20.20
2018,08,09,07,28,20.20
2018,08,09,07,29,20.20
2018,08,09,07,30,20.20
2018,08,09,07,31,20.20
2018,08,09,07,32,20.20
2018,08,09,07,33,20.20
2018,08,09,07,34,20.20
2018,08,09,07,35,20.20
2018,08,09,07,36,20.10
2018,08,09,07,37,20.10
2018,08,09,07,38,20.10
2018,08,09,07,39,20.10
2018,08,09,07,40,20.10
2018,08,09,07,41,20.10
2018,08,09,07,42,20.10
2018,08,09,07,43,20.10
2018,08,09,07,44,20.10
2018,08,09,07,45,20.10
2018,08,09,07,46,20.10
2018,08,09,07,47,20.10
2018,08,09,07,48,20.10
2018,08,09,07,49,20.10
2018,08,09,07,50,20.10
2018,08,09,07,51,20.20
2018,08,09,07,52,20.20
2018,08,09,07,53,20.20
2018,08,09,07,54,20.30
2018,08,09,07,55,20.30
2018,08,09,07,56,20.40
2018,08,09,07,57,20.40
2018,08,09,07,58,20.50
2018,08,09,07,59,20.60
2018,08,09,08,00,20.60
2018,08,09,08,01,20.60
2018,08,09,08,02,20.70
2018,08,09,08,03,20.70
2018,08,09,08,04,20.80
2018,08,09,08,05,20.80
2018,08,09,08,06,20.90
2018,08,09,08,07,20.90
2018,08,09,08,08,20.90
2018,08,09,08,09,21.00
2018,08,09,08,10,21.00
2018,08,09,08,11,21.10
2018,08,09,08,12,21.10
2018,08,09,08,13,21.10
2018,08,09,08,14,21.20
2018,08,09,08,15,21.20
2018,08,09,08,16,21.20
2018,08,09,08,17,21.20
2018,08,09,08,18,21.20
2018,08,09,08,19,21.20
2018,08,09,08,20,21.20
2018,08,09,08,21,21.20
2018,08,09,08,22,21.20
2018,08,09,08,23,21.20
2018,08,09,08,24,21.20
2018,08,09,08,25,21.20
2018,08,09,08,26,21.30
2018,08,09,08,27,21.30
2018,08,09,08,28,21.30
2018,08,09,08,29,21.30
2018,08,09,08,30,21.30
2018,08,09,08,31,21.40
2018,08,09,08,32,21.40
2018,08,09,08,33,21.40
2018,08,09,08,34,21.50
2018,08,09,08,35,21.50
2018,08,09,08,36,21.60
2018,08,09,08,37,21.70
2018,08,09,08,38,21.70
2018,08,09,08,39,21.70
2018,08,09,08,40,21.80
2018,08,09,08,41,21.80
2018,08,09,08,42,21.90
2018,08,09,08,43,22.00
2018,08,09,08,44,22.00
2018,08,09,08,45,22.10
2018,08,09,08,46,22.10
2018,08,09,08,47,22.20
2018,08,09,08,48,22.20
2018,08,09,08,49,22.30
2018,08,09,08,50,22.30
2018,08,09,08,51,22.30
2018,08,09,08,52,22.30
2018,08,09,08,53,22.40
2018,08,09,08,54,22.40
2018,08,09,08,55,22.40
2018,08,09,08,56,22.40
2018,08,09,08,57,22.40
2018,08,09,08,58,22.40
2018,08,09,08,59,22.30
2018,08,09,09,00,22.30
2018,08,09,09,01,22.30
2018,08,09,09,02,22.30
2018,08,09,09,03,22.30
2018,08,09,09,04,22.20
2018,08,09,09,05,22.20
2018,08,09,09,06,22.20
2018,08,09,09,07,22.20
2018,08,09,09,08,22.20
2018,08,09,09,09,22.20
2018,08,09,09,10,22.20
2018,08,09,09,11,22.20
2018,08,09,09,12,22.20
2018,08,09,09,13,22.20
2018,08,09,09,14,22.30
2018,08,09,09,15,22.30
2018,08,09,09,16,22.30
2018,08,09,09,17,22.40
2018,08,09,09,18,22.40
2018,08,09,09,19,22.50
2018,08,09,09,20,22.50
2018,08,09,09,21,22.50
2018,08,09,09,22,22.60
2018,08,09,09,23,22.70
2018,08,09,09,24,22.70
2018,08,09,09,25,22.80
2018,08,09,09,26,22.80
2018,08,09,09,27,22.90
2018,08,09,09,28,22.90
2018,08,09,09,29,23.00
2018,08,09,09,30,23.10
2018,08,09,09,31,23.10
2018,08,09,09,32,23.20
2018,08,09,09,33,23.30
2018,08,09,09,34,23.30
2018,08,09,09,35,23.40
2018,08,09,09,36,23.40
2018,08,09,09,37,23.50
2018,08,09,09,38,23.50
2018,08,09,09,39,23.60
2018,08,09,09,40,23.60
2018,08,09,09,41,23.60
2018,08,09,09,42,23.60
2018,08,09,09,43,23.70
2018,08,09,09,44,23.80
2018,08,09,09,45,23.80
2018,08,09,09,46,23.90
2018,08,09,09,47,23.90
2018,08,09,09,48,23.90
2018,08,09,09,49,23.90
2018,08,09,09,50,23.90
2018,08,09,09,51,23.90
2018,08,09,09,52,24.00
2018,08,09,09,53,24.00
2018,08,09,09,54,24.10
2018,08,09,09,55,24.20
2018,08,09,09,56,24.30
2018,08,09,09,57,24.40
2018,08,09,09,58,24.50
2018,08,09,09,59,24.60
2018,08,09,10,00,24.60
2018,08,09,10,01,24.70
2018,08,09,10,02,24.80
2018,08,09,10,03,24.90
2018,08,09,10,04,25.00
2018,08,09,10,05,25.10
2018,08,09,10,06,25.20
2018,08,09,10,07,25.20
2018,08,09,10,08,25.30
2018,08,09,10,09,25.40
2018,08,09,10,10,25.40
2018,08,09,10,11,25.40
2018,08,09,10,12,25.50
2018,08,09,10,13,25.60
2018,08,09,10,14,25.60
2018,08,09,10,15,25.60
2018,08,09,10,16,25.70
2018,08,09,10,17,25.70
2018,08,09,10,18,25.70
2018,08,09,10,19,25.80
2018,08,09,10,20,25.80
2018,08,09,10,21,25.80
2018,08,09,10,22,25.90
2018,08,09,10,23,25.90
2018,08,09,10,24,25.90
2018,08,09,10,25,25.90
2018,08,09,10,26,25.90
2018,08,09,10,27,25.90
2018,08,09,10,28,25.90
2018,08,09,10,29,25.90
2018,08,09,10,30,25.90
2018,08,09,10,31,25.90
2018,08,09,10,32,25.90
2018,08,09,10,33,25.90
2018,08,09,10,34,25.90
2018,08,09,10,35,25.90
2018,08,09,10,36,25.90
2018,08,09,10,37,25.90
2018,08,09,10,38,25.90
2018,08,09,10,39,25.90
2018,08,09,10,40,26.00
2018,08,09,10,41,26.00
2018,08,09,10,42,26.10
2018,08,09,10,43,26.10
2018,08,09,10,44,26.10
2018,08,09,10,45,26.10
2018,08,09,10,46,26.20
2018,08,09,10,47,26.20
2018,08,09,10,48,26.20
2018,08,09,10,49,26.20
2018,08,09,10,50,26.20
2018,08,09,10,51,26.20
2018,08,09,10,52,26.20
2018,08,09,10,53,26.20
2018,08,09,10,54,26.20
2018,08,09,10,55,26.10
2018,08,09,10,56,26.10
2018,08,09,10,57,26.10
2018,08,09,10,58,26.10
2018,08,09,10,59,26.10
2018,08,09,11,00,26.10
2018,08,09,11,01,26.20
2018,08,09,11,02,26.20
2018,08,09,11,03,26.30
2018,08,09,11,04,26.30
2018,08,09,11,05,26.40
2018,08,09,11,06,26.30
2018,08,09,11,07,26.30
2018,08,09,11,08,26.20
2018,08,09,11,09,26.20
2018,08,09,11,10,26.20
2018,08,09,11,11,26.10
2018,08,09,11,12,26.10
2018,08,09,11,13,26.00
2018,08,09,11,14,26.00
2018,08,09,11,15,26.00
2018,08,09,11,16,26.00
2018,08,09,11,17,26.10
2018,08,09,11,18,26.10
2018,08,09,11,19,26.00
2018,08,09,11,20,26.00
2018,08,09,11,21,26.00
2018,08,09,11,22,25.90
2018,08,09,11,23,25.80
2018,08,09,11,24,25.80
2018,08,09,11,25,25.80
2018,08,09,11,26,25.90
2018,08,09,11,27,25.90
2018,08,09,11,28,25.90
2018,08,09,11,29,26.00
2018,08,09,11,30,26.10
2018,08,09,11,31,26.10
2018,08,09,11,32,26.20
2018,08,09,11,33,26.20
2018,08,09,11,34,26.20
2018,08,09,11,35,26.20
2018,08,09,11,36,26.30
2018,08,09,11,37,26.30
2018,08,09,11,38,26.40
2018,08,09,11,39,26.40
2018,08,09,11,40,26.50
2018,08,09,11,41,26.50
2018,08,09,11,42,26.60
2018,08,09,11,43,26.60
2018,08,09,11,44,26.60
2018,08,09,11,45,26.60
2018,08,09,11,46,26.50
2018,08,09,11,47,26.50
2018,08,09,11,48,26.50
2018,08,09,11,49,26.60
2018,08,09,11,50,26.60
2018,08,09,11,51,26.60
2018,08,09,11,52,26.70
2018,08,09,11,53,26.70
2018,08,09,11,54,26.70
2018,08,09,11,55,26.70
2018,08,09,11,56,26.70
2018,08,09,11,57,26.70
2018,08,09,11,58,26.70
2018,08,09,11,59,26.70
2018,08,09,12,00,26.70
2018,08,09,12,01,26.80
2018,08,09,12,02,26.80
2018,08,09,12,03,26.90
2018,08,09,12,04,26.90
2018,08,09,12,05,26.90
2018,08,09,12,06,27.00
2018,08,09,12,07,27.00
2018,08,09,12,08,27.00
2018,08,09,12,09,27.00
2018,08,09,12,10,27.10
2018,08,09,12,11,27.10
2018,08,09,12,12,27.20
2018,08,09,12,13,27.20
2018,08,09,12,14,27.30
2018,08,09,12,15,27.30
2018,08,09,12,16,27.30
2018,08,09,12,17,27.30
2018,08,09,12,18,27.30
2018,08,09,12,19,27.30
2018,08,09,12,20,27.40
2018,08,09,12,21,27.40
2018,08,09,12,22,27.40
2018,08,09,12,23,27.40
2018,08,09,12,24,27.40
2018,08,09,12,25,27.30
2018,08,09,12,26,27.30
2018,08,09,12,27,27.20
2018,08,09,12,28,27.20
2018,08,09,12,29,27.20
2018,08,09,12,30,27.20
2018,08,09,12,31,27.20
2018,08,09,12,32,27.20
2018,08,09,12,33,27.10
2018,08,09,12,34,27.10
2018,08,09,12,35,27.00
2018,08,09,12,36,26.90
2018,08,09,12,37,26.80
2018,08,09,12,38,26.70
2018,08,09,12,39,26.70
2018,08,09,12,40,26.70
2018,08,09,12,41,26.80
2018,08,09,12,42,27.00
2018,08,09,12,43,27.10
2018,08,09,12,44,27.30
2018,08,09,12,45,27.40
2018,08,09,12,46,27.60
2018,08,09,12,47,27.80
2018,08,09,12,48,27.90
2018,08,09,12,49,28.10
2018,08,09,12,50,28.20
2018,08,09,12,51,28.30
2018,08,09,12,52,28.30
2018,08,09,12,53,28.30
2018,08,09,12,54,28.30
2018,08,09,12,55,28.30
2018,08,09,12,56,28.30
2018,08,09,12,57,28.30
2018,08,09,12,58,28.30
2018,08,09,12,59,28.30
2018,08,09,13,00,28.30
2018,08,09,13,01,28.30
2018,08,09,13,02,28.30
2018,08,09,13,03,28.20
2018,08,09,13,04,28.20
2018,08,09,13,05,28.20
2018,08,09,13,06,28.30
2018,08,09,13,07,28.30
2018,08,09,13,08,28.30
2018,08,09,13,09,28.30
2018,08,09,13,10,28.30
2018,08,09,13,11,28.30
2018,08,09,13,12,28.40
2018,08,09,13,13,28.40
2018,08,09,13,14,28.50
2018,08,09,13,15,28.60
2018,08,09,13,16,28.70
2018,08,09,13,17,28.70
2018,08,09,13,18,28.90
2018,08,09,13,19,29.00
2018,08,09,13,20,29.10
2018,08,09,13,21,29.10
2018,08,09,13,22,29.20
2018,08,09,13,23,29.20
2018,08,09,13,24,29.20
2018,08,09,13,25,29.10
2018,08,09,13,26,29.10
2018,08,09,13,27,29.10
2018,08,09,13,28,29.00
2018,08,09,13,29,29.00
2018,08,09,13,30,29.00
2018,08,09,13,31,29.00
2018,08,09,13,32,29.00
2018,08,09,13,33,29.00
2018,08,09,13,34,29.10
2018,08,09,13,35,29.10
2018,08,09,13,36,29.10
2018,08,09,13,37,29.20
2018,08,09,13,38,29.30
2018,08,09,13,39,29.40
2018,08,09,13,40,29.40
2018,08,09,13,41,29.40
2018,08,09,13,42,29.40
2018,08,09,13,43,29.40
2018,08,09,13,44,29.40
2018,08,09,13,45,29.40
2018,08,09,13,46,29.40
2018,08,09,13,47,29.40
2018,08,09,13,48,29.40
2018,08,09,13,49,29.40
2018,08,09,13,50,29.50
2018,08,09,13,51,29.40
2018,08,09,13,52,29.50
2018,08,09,13,53,29.50
2018,08,09,13,54,29.60
2018,08,09,13,55,29.70
2018,08,09,13,56,29.80
2018,08,09,13,57,29.80
2018,08,09,13,58,30.00
2018,08,09,13,59,30.00
2018,08,09,14,00,30.10
2018,08,09,14,01,30.10
2018,08,09,14,02,30.00
2018,08,09,14,03,30.00
2018,08,09,14,04,29.90
2018,08,09,14,05,29.90
2018,08,09,14,06,29.80
2018,08,09,14,07,29.80
2018,08,09,14,08,29.80
2018,08,09,14,09,29.80
2018,08,09,14,10,29.90
2018,08,09,14,11,29.90
2018,08,09,14,12,29.90
2018,08,09,14,13,29.90
2018,08,09,14,14,29.90
2018,08,09,14,15,29.90
2018,08,09,14,16,29.90
2018,08,09,14,17,29.90
2018,08,09,14,18,29.90
2018,08,09,14,19,29.90
2018,08,09,14,20,29.90
2018,08,09,14,21,30.00
2018,08,09,14,22,30.00
2018,08,09,14,23,29.90
2018,08,09,14,24,29.80
2018,08,09,14,25,29.80
2018,08,09,14,26,29.80
2018,08,09,14,27,29.70
2018,08,09,14,28,29.70
2018,08,09,14,29,29.70
2018,08,09,14,30,29.70
2018,08,09,14,31,29.70
2018,08,09,14,32,29.80
2018,08,09,14,33,29.80
2018,08,09,14,34,29.90
2018,08,09,14,35,30.00
2018,08,09,14,36,30.10
2018,08,09,14,37,30.20
2018,08,09,14,38,30.30
2018,08,09,14,39,30.40
2018,08,09,14,40,30.40
2018,08,09,14,41,30.40
2018,08,09,14,42,30.40
2018,08,09,14,43,30.40
2018,08,09,14,44,30.30
2018,08,09,14,45,30.30
2018,08,09,14,46,30.20
2018,08,09,14,47,30.30
2018,08,09,14,48,30.30
2018,08,09,14,49,30.40
2018,08,09,14,50,30.40
2018,08,09,14,51,30.50
2018,08,09,14,52,30.60
2018,08,09,14,53,30.80
2018,08,09,14,54,30.80
2018,08,09,14,55,30.80
2018,08,09,14,56,30.90
2018,08,09,14,57,30.90
2018,08,09,14,58,30.90
2018,08,09,14,59,30.90
2018,08,09,15,00,30.90
2018,08,09,15,01,30.90
2018,08,09,15,02,30.90
2018,08,09,15,03,30.90
2018,08,09,15,04,30.80
2018,08,09,15,05,30.80
2018,08,09,15,06,30.90
2018,08,09,15,07,30.90
2018,08,09,15,08,30.90
2018,08,09,15,09,30.90
2018,08,09,15,10,30.90
2018,08,09,15,11,31.00
2018,08,09,15,12,31.10
2018,08,09,15,13,31.10
2018,08,09,15,14,31.20
2018,08,09,15,15,31.20
2018,08,09,15,16,31.20
2018,08,09,15,17,31.10
2018,08,09,15,18,31.10
2018,08,09,15,19,31.10
2018,08,09,15,20,31.00
2018,08,09,15,21,31.00
2018,08,09,15,22,30.90
2018,08,09,15,23,30.90
2018,08,09,15,24,30.80
2018,08,09,15,25,30.90
2018,08,09,15,26,31.00
2018,08,09,15,27,31.00
2018,08,09,15,28,31.10
2018,08,09,15,29,31.20
2018,08,09,15,30,31.20
2018,08,09,15,31,31.20
2018,08,09,15,32,31.20
2018,08,09,15,33,31.30
2018,08,09,15,34,31.30
2018,08,09,15,35,31.30
2018,08,09,15,36,31.20
2018,08,09,15,37,31.20
2018,08,09,15,38,31.30
2018,08,09,15,39,31.30
2018,08,09,15,40,31.40
2018,08,09,15,41,31.40
2018,08,09,15,42,31.50
2018,08,09,15,43,31.60
2018,08,09,15,44,31.60
2018,08,09,15,45,31.70
2018,08,09,15,46,31.70
2018,08,09,15,47,31.70
2018,08,09,15,48,31.70
2018,08,09,15,49,31.70
2018,08,09,15,50,31.70
2018,08,09,15,51,31.70
2018,08,09,15,52,31.60
2018,08,09,15,53,31.70
2018,08,09,15,54,31.60
2018,08,09,15,55,31.60
2018,08,09,15,56,31.60
2018,08,09,15,57,31.70
2018,08,09,15,58,31.70
2018,08,09,15,59,31.80
2018,08,09,16,00,31.80
2018,08,09,16,01,31.80
2018,08,09,16,02,31.70
2018,08,09,16,03,31.70
2018,08,09,16,04,31.60
2018,08,09,16,05,31.60
2018,08,09,16,06,31.70
2018,08,09,16,07,31.70
2018,08,09,16,08,31.70
2018,08,09,16,09,31.70
2018,08,09,16,10,31.80
2018,08,09,16,11,31.80
2018,08,09,16,12,31.90
2018,08,09,16,13,31.90
2018,08,09,16,14,31.90
2018,08,09,16,15,32.00
2018,08,09,16,16,31.90
2018,08,09,16,17,31.90
2018,08,09,16,18,31.90
2018,08,09,16,19,31.80
2018,08,09,16,20,31.70
2018,08,09,16,21,31.70
2018,08,09,16,22,31.80
2018,08,09,16,23,31.80
2018,08,09,16,24,31.80
2018,08,09,16,25,31.80
2018,08,09,16,26,31.70
2018,08,09,16,27,31.70
2018,08,09,16,28,31.70
2018,08,09,16,29,31.70
2018,08,09,16,30,31.70
2018,08,09,16,31,31.70
2018,08,09,16,32,31.70
2018,08,09,16,33,31.70
2018,08,09,16,34,31.70
2018,08,09,16,35,31.70
2018,08,09,16,36,31.70
2018,08,09,16,37,31.80
2018,08,09,16,38,31.90
2018,08,09,16,39,32.00
2018,08,09,16,40,32.10
2018,08,09,16,41,32.20
2018,08,09,16,42,32.20
2018,08,09,16,43,32.30
2018,08,09,16,44,32.30
2018,08,09,16,45,32.30
2018,08,09,16,46,32.30
2018,08,09,16,47,32.40
2018,08,09,16,48,32.40
2018,08,09,16,49,32.40
2018,08,09,16,50,32.40
2018,08,09,16,51,32.50
2018,08,09,16,52,32.50
2018,08,09,16,53,32.60
2018,08,09,16,54,32.70
2018,08,09,16,55,32.80
2018,08,09,16,56,32.80
2018,08,09,16,57,32.80
2018,08,09,16,58,32.80
2018,08,09,16,59,32.80
2018,08,09,17,00,32.70
2018,08,09,17,01,32.70
2018,08,09,17,02,32.70
2018,08,09,17,03,32.80
2018,08,09,17,04,32.70
2018,08,09,17,05,32.60
2018,08,09,17,06,32.60
2018,08,09,17,07,32.60
2018,08,09,17,08,32.60
2018,08,09,17,09,32.70
2018,08,09,17,10,32.80
2018,08,09,17,11,32.80
2018,08,09,17,12,32.80
2018,08,09,17,13,32.70
2018,08,09,17,14,32.60
2018,08,09,17,15,32.60
2018,08,09,17,16,32.60
2018,08,09,17,17,32.50
2018,08,09,17,18,32.50
2018,08,09,17,19,32.60